East Taunton, MA

2:37 PM EST on February 08, 2016 (GMT -0500)
Taunton Municipal

Weather History for KTAN - December, 2012

Change the Weather History Date:

Sunday, December 30, 2012

  Actual Average Record
Temperature  
Mean Temperature 28 °F -  
Max Temperature 32 °F 37 °F 60 °F (1984)
Min Temperature 21 °F 19 °F -5 °F (1962)
Degree Days  
Heating Degree Days 38    
Moisture  
Dew Point 21 °F    
Average Humidity 73    
Maximum Humidity 93    
Minimum Humidity 55    
Precipitation  
Precipitation 0.03 in - - ()
Sea Level Pressure  
Sea Level Pressure 29.63 in    
Wind  
Wind Speed 12 mph (NW)    
Max Wind Speed 17 mph    
Max Gust Speed 28 mph    
Visibility 8 miles    
Events Snow    
Averages and records for this station are not official NWS values.
T = Trace of Precipitation, MM = Missing Value Source: NWS Daily Summary

Daily Weather History Graph

Daily Weather History Graph

Search for Another Location

Airport or City:

Trip Planner

Search our weather history database for the weather conditions in past years. The results will help you decide how hot, cold, wet, or windy it might be!

Date:

Astronomy

Dec. 30, 2012 Rise Set
Actual Time 7:11 AM EST 4:22 PM EST
Civil Twilight 6:39 AM EST 4:53 PM EST
Nautical Twilight 6:04 AM EST 5:28 PM EST
Astronomical Twilight 5:31 AM EST 6:02 PM EST
Moon 6:52 PM EST (12/30) 8:16 AM EST (12/30)
Length of Visible Light 10h 13m
Length of Day
9h 10m
Waning Gibbous, 95% of the Moon is Illuminated
Dec 30
Waning Gibbous
Jan 4
Last Quarter
Jan 11
New
Jan 18
First Quarter
Jan 26
Full

Hourly Weather History & Observations

Time (EST) Temp. Windchill Dew Point Humidity Pressure Visibility Wind Dir Wind Speed Gust Speed Precip Events Conditions
12:00 AM 32.0 °F 21.6 °F 30.0 °F 92% 29.38 in 1.0 mi NW 15.0 mph 23.0 mph 0.01 in Snow Light Snow
12:07 AM 32.0 °F 20.8 °F 28.9 °F 88% 29.38 in 1.2 mi NW 17.3 mph 24.2 mph 0.01 in Snow Light Snow
12:49 AM 30.2 °F 19.8 °F 28.4 °F 93% 29.39 in 2.5 mi NNW 13.8 mph 23.0 mph 0.02 in Snow Light Snow
12:52 AM 30.9 °F 22.2 °F 28.0 °F 89% 29.39 in 2.5 mi NW 10.4 mph 23.0 mph 0.02 in Snow Light Snow
1:25 AM 30.9 °F 22.8 °F 27.0 °F 85% 29.40 in 3.0 mi NNW 9.2 mph 18.4 mph 0.00 in Snow Light Snow
1:39 AM 30.9 °F 21.7 °F 27.0 °F 85% 29.41 in 3.0 mi NNW 11.5 mph 20.7 mph 0.01 in Snow Light Snow
1:52 AM 30.0 °F 22.4 °F 26.1 °F 85% 29.42 in 5.0 mi NW 8.1 mph 20.7 mph 0.01 in Snow Light Snow
2:52 AM 30.0 °F 23.2 °F 26.1 °F 85% 29.45 in 10.0 mi NW 6.9 mph 17.3 mph 0.00 in   Overcast
3:52 AM 28.9 °F 21.1 °F 26.1 °F 89% 29.47 in 10.0 mi WNW 8.1 mph - N/A   Overcast
4:02 AM 30.0 °F 24.1 °F 26.1 °F 85% 29.47 in 10.0 mi NW 5.8 mph - N/A   Overcast
4:52 AM 30.0 °F 25.2 °F 25.0 °F 82% 29.49 in 10.0 mi Variable 4.6 mph - N/A   Overcast
5:52 AM 28.9 °F 19.8 °F 25.0 °F 85% 29.51 in 10.0 mi WNW 10.4 mph - N/A   Overcast
6:52 AM 28.0 °F 20.0 °F 23.0 °F 81% 29.55 in 10.0 mi NW 8.1 mph 18.4 mph N/A   Partly Cloudy
7:52 AM 28.0 °F 20.0 °F 21.9 °F 78% 29.59 in 10.0 mi WNW 8.1 mph 21.9 mph N/A   Mostly Cloudy
8:52 AM 28.0 °F 18.1 °F 21.0 °F 75% 29.62 in 10.0 mi WNW 11.5 mph 21.9 mph N/A   Clear
9:52 AM 28.0 °F 18.1 °F 21.0 °F 75% 29.65 in 10.0 mi WNW 11.5 mph 21.9 mph N/A   Overcast
10:52 AM 28.9 °F 19.2 °F 21.0 °F 72% 29.66 in 10.0 mi NW 11.5 mph 19.6 mph N/A   Partly Cloudy
11:52 AM 30.0 °F 20.5 °F 19.9 °F 66% 29.65 in 10.0 mi NW 11.5 mph 25.3 mph N/A   Partly Cloudy
12:52 PM 30.0 °F 19.1 °F 19.9 °F 66% 29.67 in 10.0 mi WNW 15.0 mph 25.3 mph N/A   Overcast
1:52 PM 30.0 °F 19.1 °F 18.0 °F 61% 29.68 in 10.0 mi WNW 15.0 mph 26.5 mph N/A   Scattered Clouds
2:52 PM 30.0 °F 19.5 °F 17.1 °F 59% 29.71 in 10.0 mi WNW 13.8 mph 25.3 mph N/A   Clear
3:52 PM 28.9 °F 18.2 °F 15.1 °F 56% 29.74 in 10.0 mi WNW 13.8 mph 24.2 mph N/A   Clear
4:52 PM 28.0 °F 17.5 °F 14.0 °F 56% 29.78 in 10.0 mi WNW 12.7 mph 23.0 mph N/A   Clear
5:52 PM 27.0 °F 17.3 °F 14.0 °F 58% 29.83 in 10.0 mi WNW 10.4 mph - N/A   Clear
6:52 PM 26.1 °F 16.2 °F 12.9 °F 58% 29.88 in 10.0 mi WNW 10.4 mph - N/A   Clear
7:52 PM 26.1 °F 15.6 °F 12.0 °F 55% 29.90 in 10.0 mi WNW 11.5 mph 27.6 mph N/A   Clear
8:52 PM 25.0 °F 13.6 °F 10.9 °F 55% 29.93 in 10.0 mi WNW 12.7 mph 19.6 mph N/A   Clear
9:52 PM 24.1 °F 12.0 °F 10.9 °F 57% 29.94 in 10.0 mi WNW 13.8 mph 21.9 mph N/A   Clear
10:52 PM 23.0 °F 13.9 °F 10.0 °F 58% 29.97 in 10.0 mi WNW 8.1 mph 17.3 mph N/A   Clear
11:52 PM 21.9 °F 12.5 °F 9.0 °F 58% 29.99 in 10.0 mi WNW 8.1 mph - N/A   Clear